Погода в Тортугеро

Коста-Рика     10°32′32″N   83°30′10″W
темп.,
°C
ветер,
м/с
пор.,
м/с
влажн.,
%
обл.,
%
осадки,
мм/ч
давл.,
гПа
погр.,
м
26 октября, вт
вт2600:00+24зсз009368 1.1 101330
03:00+24юз1192100 0.3 101258
06:00+24зюз119432 0.4 101372
09:00+28в117578 0.4 1014528
12:00+29всв3366100 0.4 1011960
15:00+29св3367100 0.0 1009655
18:00+26всв2282100 0.0 1010289
21:00+25ююв118478 0.0 1012300
27 октября, ср
ср2700:00+24юз119281 0.0 101166
03:00+23юз229422 0.0 101073
06:00+23юз1192100 0.0 101277
09:00+29св0167100 0.0 1013684
12:00+29всв3268100 0.0 1010957
15:00+29всв33695 0.0 1008701
18:00+26в2281100 0.0 1010279
21:00+25юв1185100 0.0 1012240
28 октября, чт
чт2800:00+24зюз119290 0.0 101160
03:00+23з229599 0.0 101082
06:00+23зюз129470 0.0 1012102
09:00+29с116765 0.0 1013656
12:00+30св3363100 0.0 1010977
15:00+29всв456585 0.0 1008476
18:00+27юв2273100 0.1 1010232
21:00+26ю1276100 0.0 1012167
29 октября, пт
пт2900:00+24зюз1185100 0.0 101165
03:00+24з228896 0.0 100981
06:00+24з129210 0.0 1011103
09:00+29ссз116611 0.0 1013710
12:00+28в227727 0.6 1010460
15:00+29в336931 0.4 1008574
18:00+26вюв1285100 2.1 1010142
21:00+24юз2291100 0.9 101268
30 октября, сб
сб3000:00+24зюз129265 1.4 101054
03:00+23з229419 0.4 100991
06:00+24з239483 1.1 1011107
09:00+27зсз128272 1.1 1012345
12:00+31св326097 1.2 10101345
15:00+28св3474100 0.4 1008496
18:00+25всв118653 3.0 1010146
21:00+24зюз1191100 1.6 101251